User: anonymous   Login
Location: Wildlife_Club
(35.6000°N, 81.4330°W)
Time: 13:53:44
(UTC-04:00)
Language:

Cosmos 1782 - Orbit

View from above orbital plane
View from above orbital plane
View from above satellite
View from above satellite

Ground track
Ground track

The orbit data is extracted from the following two-line orbital elements,

1 16986U 86074A   15146.76909992  .00001894  00000-0  13130-3 0  9996
2 16986 082.5058 132.4980 0012755 036.7717 323.4382 15.05003891557619
Epoch (UTC): 26 May 2015 18:27:30
Eccentricity: 0.0012755
inclination: 82.5058°
perigee height: 542 km
apogee height: 560 km
right ascension of ascending node: 132.4980°
argument of perigee: 36.7717°
revolutions per day: 15.05003891
mean anomaly at epoch: 323.4382°
orbit number at epoch: 55761

The dashed part of the orbit path shows where the satellite is in the earth's shadow,  

DLR